FENGYUN 1C DEB, 35204

Orbit data source: Space-Track

FENGYUN 1C DEB, 35204 is space debris in SSO originally from a launch on Mon, 10 May 1999 UTC launched from the Taiyaun Space Center, China (TSC). Fengyun 1C debris stems from the Chinese weather satellite Fengyun-1C, which was intentionally destroyed by a Chinese anti-satellite missile in 2007. This event dramatically increased the amount of space debris, with thousands of trackable fragments posing hazards to satellites and human spaceflight. The Fengyun 1C debris cloud has become a focal point in discussions about space sustainability and the need for international regulations to prevent the creation of new debris.

Loading next visibility...
Identifier
35204, 1999-025DPL
Orbit
SSO
Country
Flag of CNCN / PRC
Related business
Manufacturer
Unknown
Mission
Spacecraft
Bus & Motor
Unknown
Mass
Unknown
Launch date (UTC)
1999-05-10 (27 years ago)
Launch vehicle
Unknown
Launch site
Taiyaun Space Center, China (TSC)
Object type
Payload
Rocket body
Debris
Shape & HBR
Unknown shape, 0.1 m
Radar Cross Section
Small (<0.1 m²)

Expand to show TLE details & history
Last TLE update: 1 day ago

TLE from 1 day ago
0 FENGYUN 1C DEB
1 35204U 99025DPL 26104.03076492  .00003452  00000-0  87866-3 0  9995
2 35204  99.0068 305.9549 0036402 318.4724 194.8242 14.50979193927025
Epoch: 2026-04-14T00:44Z
TLE epoch observation values (Epoch: 2026-04-14T00:44:18.089Z)
Latitude
26.49011°
Longitude
-82.82682°
Altitude
750.695 km
Speed
7.468 km/s
True Right ascension
08h 41m 50s
True Declination
26° 21' 11"
Sunlit
Object was in daylight at epoch
Visualization orbit readout
Latitude
Unknown
Longitude
Unknown
Altitude
Unknown
Speed
Unknown
Apparent Right ascension
Unknown
Apparent Declination
Unknown
Sunlit
N/A
Visualization observer readout
Local Sidereal Time
12:14:59
Azimuth
Unknown
Elevation
Unknown
Doppler factor
Unknown
Orbital elements
Apogee altitude
745.421 km
Perigee altitude
693.747 km
Semi-major axis
7,097.721 km
Eccentricity
0.00364
Inclination
99.0068°
RAAN
305.9549°
Arg. of periapsis
318.4724°
True anomaly
194.71794°
Mean anomaly
194.8242°
Eccentric anomaly
194.77102°
Mean motion
3.62965 °/min
Orbital period
99.18 mins
BSTAR
0.00087866
Loading maneuver chart data...
Computing Atmospheric mass density...

Documentation

Showing up to 5 results
|